Starlink 4430

operational
NORAD ID: 53485 Int'l Des: 2022-099 Owner: SPXS Country: US Constellation: starlink
LEOCIRCULARRETROGRADESSO

Starlink 4430について

説明を読み込み中...

リアルタイム位置

3D地球を読み込み中...

次回通過

高度履歴

Altitude vs Time

uPlot chart will show altitude changes over time

軌道要素

1 53485U 22099W 25305.59034074 .00000553 00000-0 47569-4 0 9992
2 53485 97.6035 64.8031 0002201 83.9723 276.1752 15.01259332176764
Epoch: Nov 1, 2025 • Age: 23 hours

現在のステータス

高度 565.5 km
速度 7.58 km/s
衛星直下点 21.78°N, 7.75°E
打ち上げ日 Aug 12, 2022
運用期間 3.2 years
タイプ internet

技術仕様

分類 Payload
質量 300.00 kg
乾燥質量 275.00 kg
総質量 300.00 kg
長さ 0.20 m
直径 2.80 m
スパン 9.00 m
形状 Box + pan
製造者 SPXS
バスタイプ Starlink
フェーズステータス In Orbit
所有者/国 SPXS/US

大規模コンステレーション

Loading constellations...